Weather History for KMQY - February, 2013

Change the Weather History Date:

Saturday, February 9, 2013

  Actual Average Record
Temperature  
Mean Temperature 44 °F -  
Max Temperature 55 °F 47 °F 73 °F (1999)
Min Temperature 33 °F 33 °F 19 °F (2007)
Degree Days  
Heating Degree Days 21    
Moisture  
Dew Point 30 °F    
Average Humidity 65    
Maximum Humidity 81    
Minimum Humidity 34    
Precipitation  
Precipitation 0.00 in - - ()
Sea Level Pressure  
Sea Level Pressure 30.33 in    
Wind  
Wind Speed 6 mph (ENE)    
Max Wind Speed 12 mph    
Max Gust Speed -    
Visibility 10 miles    
Events      
Averages and records for this station are not official NWS values.
T = Trace of Precipitation, MM = Missing Value Source: NWS Daily Summary

Daily Weather History Graph

Daily Weather History Graph

Search for Another Location

Airport or City:

Trip Planner

Search our weather history database for the weather conditions in past years. The results will help you decide how hot, cold, wet, or windy it might be!

Date:

Astronomy

Feb. 09, 2013 Rise Set
Actual Time 6:39 AM CST 5:21 PM CST
Civil Twilight 6:12 AM CST 5:48 PM CST
Nautical Twilight 5:42 AM CST 6:18 PM CST
Astronomical Twilight 5:12 AM CST 6:48 PM CST
Moon 5:51 AM CST (2/9) 5:02 PM CST (2/9)
Length of Visible Light 11h 35m
Length of Day
10h 42m
Waning Crescent, 0% of the Moon is Illuminated
Feb 9
Waning Crescent
Feb 10
New
Feb 17
First Quarter
Feb 25
Full
Mar 4
Last Quarter

Hourly Weather History & Observations

Time (CST) Temp. Windchill Dew Point Humidity Pressure Visibility Wind Dir Wind Speed Gust Speed Precip Events Conditions
12:56 AM 36.0 °F 28.0 °F 29.1 °F 76% 30.38 in 10.0 mi NNE 11.5 mph - N/A   Overcast
1:56 AM 36.0 °F 28.5 °F 29.1 °F 76% 30.38 in 10.0 mi NE 10.4 mph - N/A   Overcast
2:56 AM 34.9 °F 27.7 °F 28.0 °F 76% 30.38 in 10.0 mi NE 9.2 mph - N/A   Overcast
3:56 AM 34.9 °F 28.3 °F 28.0 °F 76% 30.38 in 10.0 mi NE 8.1 mph - N/A   Overcast
4:56 AM 34.9 °F 27.1 °F 28.0 °F 76% 30.39 in 10.0 mi ENE 10.4 mph - N/A   Overcast
5:56 AM 34.9 °F 27.7 °F 28.0 °F 76% 30.40 in 10.0 mi ENE 9.2 mph - N/A   Overcast
6:56 AM 34.0 °F 29.8 °F 28.0 °F 79% 30.42 in 10.0 mi ENE 4.6 mph - N/A   Overcast
7:20 AM 33.8 °F - 28.4 °F 81% 30.38 in 7.0 mi Calm Calm - N/A   Scattered Clouds
7:56 AM 36.0 °F - 28.0 °F 73% 30.43 in 10.0 mi Calm Calm - N/A   Clear
8:56 AM 37.9 °F 30.9 °F 28.0 °F 68% 30.42 in 10.0 mi ENE 10.4 mph - N/A   Clear
9:56 AM 39.9 °F - 28.0 °F 63% 30.42 in 10.0 mi Calm Calm - N/A   Clear
10:56 AM 43.0 °F - 28.0 °F 56% 30.40 in 10.0 mi Calm Calm - N/A   Clear
11:56 AM 46.9 °F - 29.1 °F 50% 30.37 in 10.0 mi Calm Calm - N/A   Clear
12:56 PM 50.0 °F - 28.0 °F 43% 30.33 in 10.0 mi ENE 5.8 mph - N/A   Clear
1:56 PM 52.9 °F - 28.0 °F 38% 30.30 in 10.0 mi Calm Calm - N/A   Clear
2:56 PM 54.9 °F - 27.1 °F 34% 30.28 in 10.0 mi Calm Calm - N/A   Clear
3:56 PM 55.9 °F - 29.1 °F 36% 30.26 in 10.0 mi East 3.5 mph - N/A   Clear
4:56 PM 52.0 °F - 30.0 °F 43% 30.26 in 10.0 mi Calm Calm - N/A   Clear
5:56 PM 45.0 °F - 32.9 °F 63% 30.25 in 10.0 mi Calm Calm - N/A   Clear
6:56 PM 43.0 °F - 34.0 °F 71% 30.24 in 10.0 mi Calm Calm - N/A   Clear
7:56 PM 39.9 °F - 32.9 °F 76% 30.24 in 10.0 mi Calm Calm - N/A   Clear
8:56 PM 41.0 °F - 34.9 °F 79% 30.23 in 10.0 mi Calm Calm - N/A   Clear
9:56 PM 41.9 °F 37.5 °F 34.0 °F 73% 30.21 in 10.0 mi SSE 6.9 mph - N/A   Clear
10:56 PM 43.0 °F - 34.9 °F 73% 30.21 in 10.0 mi Calm Calm - N/A   Clear
11:56 PM 43.0 °F - 34.0 °F 71% 30.21 in 10.0 mi Calm Calm - N/A   Clear